Albany, NY

1:42 PM EDT on October 19, 2017 (GMT -0400)
Albany International

Weather History for KALB - March, 2012

Change the Weather History Date:

Wednesday, March 28, 2012

  Actual Average Record
Temperature  
Mean Temperature 48 °F 40 °F  
Max Temperature 56 °F 50 °F 85 °F (1945)
Min Temperature 39 °F 30 °F 3 °F (1923)
Degree Days  
Heating Degree Days 17 25  
Month to date heating degree days 516 855  
Since 1 July heating degree days 4595 5799  
Cooling Degree Days 0 0  
Month to date cooling degree days 1 0  
Year to date cooling degree days 1 0  
Moisture  
Dew Point 27 °F    
Average Humidity 49    
Maximum Humidity 77    
Minimum Humidity 20    
Precipitation  
Precipitation 0.07 in 0.10 in 1.73 in (1932)
Month to date precipitation 1.53 2.89  
Year to date precipitation 4.79 7.68  
Snow  
Snow 0.00 in 0.20 in 14.20 in (1932)
Month to date snowfall 5.1 10.4  
Since 1 July snowfall 23.3 57.3  
Snow Depth 0.00 in    
Sea Level Pressure  
Sea Level Pressure 29.75 in    
Wind  
Wind Speed 9 mph (South)    
Max Wind Speed 24 mph    
Max Gust Speed 32 mph    
Visibility 10 miles    
Events Rain    
T = Trace of Precipitation, MM = Missing Value Source: NWS Daily Summary

Daily Weather History Graph

Daily Weather History Graph

Search for Another Location

Airport or City:

Trip Planner

Search our weather history database for the weather conditions in past years. The results will help you decide how hot, cold, wet, or windy it might be!

Date:

Astronomy

Mar. 28, 2012 Rise Set
Actual Time 6:43 AM EDT 7:17 PM EDT
Civil Twilight 6:15 AM EDT 7:45 PM EDT
Nautical Twilight 5:41 AM EDT 8:19 PM EDT
Astronomical Twilight 5:07 AM EDT 8:54 PM EDT
Moon 9:51 AM EDT (3/28) 12:24 AM EDT (3/28)
Length of Visible Light 13h 30m
Length of Day
12h 33m
Waxing Crescent, 30% of the Moon is Illuminated
Mar 28
Waxing Crescent
Mar 30
First Quarter
Apr 6
Full
Apr 13
Last Quarter
Apr 21
New

Hourly Weather History & Observations

Time (EDT) Temp. Windchill Dew Point Humidity Pressure Visibility Wind Dir Wind Speed Gust Speed Precip Events Conditions
12:51 AM 39.0 °F 36.8 °F 10.9 °F 32% 30.12 in 10.0 mi SE 3.5 mph - N/A   Overcast
1:51 AM 39.0 °F 34.8 °F 9.0 °F 29% 30.06 in 10.0 mi South 5.8 mph - N/A   Overcast
2:51 AM 39.0 °F 32.3 °F 8.1 °F 28% 30.00 in 10.0 mi South 10.4 mph - N/A   Overcast
3:51 AM 39.9 °F 36.7 °F 6.1 °F 25% 29.99 in 10.0 mi SSE 4.6 mph - N/A   Overcast
4:51 AM 42.1 °F - 5.0 °F 22% 29.98 in 10.0 mi Calm Calm - N/A   Overcast
5:51 AM 39.0 °F - 18.0 °F 43% 29.94 in 10.0 mi Calm Calm - N/A   Overcast
6:51 AM 42.1 °F 35.7 °F 8.1 °F 25% 29.90 in 10.0 mi South 11.5 mph - N/A   Mostly Cloudy
7:51 AM 42.1 °F 36.1 °F 12.0 °F 29% 29.87 in 10.0 mi South 10.4 mph 18.4 mph 0.00 in Rain Light Rain
8:51 AM 42.1 °F 36.1 °F 17.1 °F 37% 29.85 in 10.0 mi South 10.4 mph - 0.00 in Rain Light Rain
9:51 AM 43.0 °F 38.8 °F 24.1 °F 47% 29.81 in 10.0 mi South 6.9 mph - 0.00 in   Overcast
10:51 AM 43.0 °F 37.7 °F 32.0 °F 65% 29.76 in 10.0 mi South 9.2 mph 19.6 mph 0.04 in   Mostly Cloudy
11:51 AM 44.1 °F 37.7 °F 30.0 °F 58% 29.73 in 10.0 mi South 12.7 mph 20.7 mph 0.00 in Rain Light Rain
12:51 PM 44.1 °F 37.1 °F 30.0 °F 58% 29.70 in 10.0 mi South 15.0 mph 24.2 mph 0.00 in   Overcast
1:51 PM 48.9 °F - 32.0 °F 52% 29.63 in 10.0 mi South 17.3 mph 27.6 mph N/A   Mostly Cloudy
2:51 PM 52.0 °F - 34.0 °F 50% 29.60 in 10.0 mi SSE 13.8 mph 20.7 mph N/A   Scattered Clouds
3:51 PM 53.1 °F - 37.9 °F 57% 29.55 in 10.0 mi SSE 15.0 mph - N/A   Mostly Cloudy
4:51 PM 55.0 °F - 39.0 °F 55% 29.53 in 10.0 mi South 12.7 mph 20.7 mph N/A   Mostly Cloudy
5:51 PM 55.0 °F - 39.9 °F 57% 29.55 in 10.0 mi Calm Calm - N/A   Mostly Cloudy
6:51 PM 55.9 °F - 39.9 °F 55% 29.55 in 10.0 mi SSE 4.6 mph - N/A   Mostly Cloudy
7:51 PM 55.0 °F - 41.0 °F 59% 29.56 in 10.0 mi South 5.8 mph - N/A   Overcast
8:51 PM 53.1 °F - 44.1 °F 71% 29.59 in 10.0 mi SW 4.6 mph - 0.00 in Rain Light Rain
9:51 PM 51.1 °F - 46.9 °F 86% 29.61 in 10.0 mi SW 9.2 mph - 0.03 in   Overcast
10:51 PM 52.0 °F - 44.1 °F 74% 29.61 in 10.0 mi WNW 10.4 mph - N/A   Overcast
11:51 PM 51.1 °F - 41.0 °F 68% 29.61 in 10.0 mi WNW 16.1 mph - N/A   Overcast